{"data":{"norad_id":39620,"epoch":"2026-05-20T04:22:56.140608Z","epoch_age_seconds":490482,"freshness":"STALE","line1":"1 39620U 14012A   26140.18259422 -.00000036  00000+0  00000+0 0  9992","line2":"2 39620  65.3143 314.8875 0010943 329.1830  30.7466  2.13103163 94642","mean_motion":2.13103163,"eccentricity":0.0010943,"inclination_deg":65.3143,"raan_deg":314.8875,"arg_perigee_deg":329.183,"mean_anomaly_deg":30.7466,"bstar":0,"rev_number":9464,"period_min":675.72905992015,"perigee_km":19101.881292017,"apogee_km":19157.707951164,"semimajor_km":25507.93162159,"source":"CELESTRAK","updated_at":"2026-05-25T13:38:23.893368Z"}}